contact:dominique.lefevre@mio.osupytheas.fr, maurice.libes@osupytheas.fr, didier.mallarino@osupytheas.fr
Project:EMSO http://www.emso-fr.org/EMSO-France
Depth: 2436.0 m
Title:EMSO Ligure Ouest : Data MII capteur MICROCAT
DateTime_Computer,Latitude,Longitude,Temperature,Conductivity,Pressure,DateTime_Instrument
DateTime_Computer,Latitude,Longitude,degC,S m-1,dbar,DateTime_Instrument
2019-10-05T00:02:55Z,42.805,6.029,13.2958,4.59956,2469.97,2019-10-05T02:03:20Z
2019-10-05T00:05:59Z,42.805,6.029,13.2954,4.59959,2469.947,2019-10-05T02:06:23Z
2019-10-05T00:09:02Z,42.805,6.029,13.2961,4.59956,2469.937,2019-10-05T02:09:26Z
2019-10-05T00:12:05Z,42.805,6.029,13.2957,4.59956,2469.984,2019-10-05T02:12:30Z
2019-10-05T00:15:08Z,42.805,6.029,13.2957,4.59956,2469.984,2019-10-05T02:15:33Z
2019-10-05T00:18:11Z,42.805,6.029,13.2958,4.59956,2469.923,2019-10-05T02:18:36Z
2019-10-05T00:21:15Z,42.805,6.029,13.2959,4.59955,2469.923,2019-10-05T02:21:39Z
2019-10-05T00:24:18Z,42.805,6.029,13.2955,4.59956,2469.937,2019-10-05T02:24:42Z
2019-10-05T00:27:21Z,42.805,6.029,13.2957,4.59956,2469.947,2019-10-05T02:27:46Z
2019-10-05T00:30:24Z,42.805,6.029,13.2956,4.59956,2469.923,2019-10-05T02:30:49Z
2019-10-05T00:33:27Z,42.805,6.029,13.2958,4.59955,2469.947,2019-10-05T02:33:52Z
2019-10-05T00:36:31Z,42.805,6.029,13.2960,4.59954,2469.923,2019-10-05T02:36:55Z
2019-10-05T00:39:34Z,42.805,6.029,13.2954,4.59954,2469.9,2019-10-05T02:39:58Z
2019-10-05T00:42:37Z,42.805,6.029,13.2956,4.59955,2469.937,2019-10-05T02:43:02Z
2019-10-05T00:45:40Z,42.805,6.029,13.2957,4.59956,2469.96,2019-10-05T02:46:05Z
2019-10-05T00:48:43Z,42.805,6.029,13.2955,4.59954,2469.937,2019-10-05T02:49:08Z
2019-10-05T00:51:47Z,42.805,6.029,13.2957,4.59955,2469.876,2019-10-05T02:52:11Z
2019-10-05T00:54:50Z,42.805,6.029,13.2957,4.59955,2469.923,2019-10-05T02:55:15Z
2019-10-05T00:57:53Z,42.805,6.029,13.2957,4.59956,2469.9,2019-10-05T02:58:18Z
2019-10-05T01:00:56Z,42.805,6.029,13.2958,4.59957,2469.923,2019-10-05T03:01:21Z
2019-10-05T01:04:00Z,42.805,6.029,13.2953,4.59954,2469.923,2019-10-05T03:04:24Z
2019-10-05T01:07:03Z,42.805,6.029,13.2959,4.59958,2469.9,2019-10-05T03:07:27Z
2019-10-05T01:10:06Z,42.805,6.029,13.2957,4.59955,2469.9,2019-10-05T03:10:31Z
2019-10-05T01:13:09Z,42.805,6.029,13.2961,4.59956,2469.923,2019-10-05T03:13:34Z
2019-10-05T01:16:13Z,42.805,6.029,13.2961,4.59955,2469.937,2019-10-05T03:16:37Z
2019-10-05T01:19:16Z,42.805,6.029,13.2960,4.59956,2469.9,2019-10-05T03:19:40Z
2019-10-05T01:22:19Z,42.805,6.029,13.2957,4.59955,2469.937,2019-10-05T03:22:44Z
2019-10-05T01:25:22Z,42.805,6.029,13.2961,4.59955,2469.923,2019-10-05T03:25:47Z
2019-10-05T01:28:25Z,42.805,6.029,13.2954,4.59955,2469.9,2019-10-05T03:28:50Z
2019-10-05T01:31:29Z,42.805,6.029,13.2956,4.59954,2469.937,2019-10-05T03:31:53Z
2019-10-05T01:34:32Z,42.805,6.029,13.2958,4.59956,2469.9,2019-10-05T03:34:56Z
2019-10-05T01:37:35Z,42.805,6.029,13.2958,4.59954,2469.937,2019-10-05T03:38:00Z
2019-10-05T01:40:38Z,42.805,6.029,13.2958,4.59955,2469.937,2019-10-05T03:41:03Z
2019-10-05T01:43:41Z,42.805,6.029,13.2958,4.59956,2469.876,2019-10-05T03:44:06Z
2019-10-05T01:46:45Z,42.805,6.029,13.2953,4.59958,2469.937,2019-10-05T03:47:09Z
2019-10-05T01:49:48Z,42.805,6.029,13.2960,4.59955,2469.9,2019-10-05T03:50:12Z
2019-10-05T01:52:51Z,42.805,6.029,13.2957,4.59959,2469.853,2019-10-05T03:53:16Z
2019-10-05T01:55:54Z,42.805,6.029,13.2951,4.59955,2469.876,2019-10-05T03:56:19Z
2019-10-05T01:58:57Z,42.805,6.029,13.2955,4.59956,2469.923,2019-10-05T03:59:22Z
2019-10-05T02:02:01Z,42.805,6.029,13.2957,4.59955,2469.876,2019-10-05T04:02:25Z
2019-10-05T02:05:04Z,42.805,6.029,13.2958,4.59955,2469.937,2019-10-05T04:05:28Z
2019-10-05T02:08:07Z,42.805,6.029,13.2957,4.59955,2469.914,2019-10-05T04:08:32Z
2019-10-05T02:11:10Z,42.805,6.029,13.2960,4.59955,2469.947,2019-10-05T04:11:35Z
2019-10-05T02:14:14Z,42.805,6.029,13.2954,4.59954,2469.9,2019-10-05T04:14:38Z
2019-10-05T02:17:17Z,42.805,6.029,13.2958,4.59956,2469.876,2019-10-05T04:17:41Z
2019-10-05T02:20:20Z,42.805,6.029,13.2957,4.59955,2469.89,2019-10-05T04:20:44Z
2019-10-05T02:23:23Z,42.805,6.029,13.2958,4.59956,2469.9,2019-10-05T04:23:48Z
2019-10-05T02:26:26Z,42.805,6.029,13.2958,4.59954,2469.9,2019-10-05T04:26:51Z
2019-10-05T02:29:30Z,42.805,6.029,13.2958,4.59955,2469.914,2019-10-05T04:29:54Z
2019-10-05T02:32:33Z,42.805,6.029,13.2958,4.59956,2469.914,2019-10-05T04:32:57Z
2019-10-05T02:35:36Z,42.805,6.029,13.2958,4.59954,2469.914,2019-10-05T04:36:01Z
2019-10-05T02:38:39Z,42.805,6.029,13.2960,4.59956,2469.876,2019-10-05T04:39:04Z
2019-10-05T02:41:42Z,42.805,6.029,13.2959,4.59955,2469.937,2019-10-05T04:42:07Z
2019-10-05T02:44:46Z,42.805,6.029,13.2958,4.59961,2469.876,2019-10-05T04:45:10Z
2019-10-05T02:47:49Z,42.805,6.029,13.2957,4.59954,2469.923,2019-10-05T04:48:13Z
2019-10-05T02:50:52Z,42.805,6.029,13.2958,4.59954,2469.9,2019-10-05T04:51:17Z
2019-10-05T02:53:55Z,42.805,6.029,13.2959,4.59956,2469.9,2019-10-05T04:54:20Z
2019-10-05T02:56:58Z,42.805,6.029,13.2961,4.59954,2469.876,2019-10-05T04:57:23Z
2019-10-05T03:00:02Z,42.805,6.029,13.2956,4.59956,2469.914,2019-10-05T05:00:26Z
2019-10-05T03:03:05Z,42.805,6.029,13.2958,4.59961,2469.9,2019-10-05T05:03:29Z
2019-10-05T03:06:08Z,42.805,6.029,13.2961,4.59954,2469.9,2019-10-05T05:06:33Z
2019-10-05T03:09:11Z,42.805,6.029,13.2959,4.59955,2469.867,2019-10-05T05:09:36Z
2019-10-05T03:12:14Z,42.805,6.029,13.2957,4.59954,2469.876,2019-10-05T05:12:39Z
2019-10-05T03:15:18Z,42.805,6.029,13.2960,4.59955,2469.923,2019-10-05T05:15:42Z
2019-10-05T03:18:21Z,42.805,6.029,13.2958,4.59956,2469.876,2019-10-05T05:18:46Z
2019-10-05T03:21:24Z,42.805,6.029,13.2955,4.59955,2469.876,2019-10-05T05:21:49Z
2019-10-05T03:24:27Z,42.805,6.029,13.2957,4.59955,2469.89,2019-10-05T05:24:52Z
2019-10-05T03:27:31Z,42.805,6.029,13.2958,4.59956,2469.876,2019-10-05T05:27:55Z
2019-10-05T03:30:34Z,42.805,6.029,13.2957,4.59956,2469.914,2019-10-05T05:30:58Z
2019-10-05T03:33:37Z,42.805,6.029,13.2958,4.59954,2469.876,2019-10-05T05:34:02Z
2019-10-05T03:36:40Z,42.805,6.029,13.2957,4.59955,2469.876,2019-10-05T05:37:05Z
2019-10-05T03:39:44Z,42.805,6.029,13.2957,4.59954,2469.89,2019-10-05T05:40:08Z
2019-10-05T03:42:47Z,42.805,6.029,13.2957,4.59954,2469.876,2019-10-05T05:43:11Z
2019-10-05T03:45:50Z,42.805,6.029,13.2957,4.59955,2469.867,2019-10-05T05:46:15Z
2019-10-05T03:48:53Z,42.805,6.029,13.2957,4.59954,2469.9,2019-10-05T05:49:18Z
2019-10-05T03:51:56Z,42.805,6.029,13.2960,4.59955,2469.876,2019-10-05T05:52:21Z
2019-10-05T03:55:00Z,42.805,6.029,13.2958,4.59955,2469.9,2019-10-05T05:55:24Z
2019-10-05T03:58:03Z,42.805,6.029,13.2959,4.59955,2469.876,2019-10-05T05:58:28Z
2019-10-05T04:01:06Z,42.805,6.029,13.2959,4.59957,2469.876,2019-10-05T06:01:31Z
2019-10-05T04:04:10Z,42.805,6.029,13.2957,4.59954,2469.9,2019-10-05T06:04:34Z
2019-10-05T04:07:13Z,42.805,6.029,13.2958,4.59958,2469.89,2019-10-05T06:07:37Z
2019-10-05T04:10:16Z,42.805,6.029,13.2953,4.59955,2469.853,2019-10-05T06:10:41Z
2019-10-05T04:13:19Z,42.805,6.029,13.2954,4.59954,2469.876,2019-10-05T06:13:44Z
2019-10-05T04:16:22Z,42.805,6.029,13.2958,4.59955,2469.853,2019-10-05T06:16:47Z
2019-10-05T04:19:26Z,42.805,6.029,13.2954,4.59955,2469.914,2019-10-05T06:19:50Z
2019-10-05T04:22:29Z,42.805,6.029,13.2958,4.59954,2469.89,2019-10-05T06:22:53Z
2019-10-05T04:25:32Z,42.805,6.029,13.2956,4.59955,2469.876,2019-10-05T06:25:57Z
2019-10-05T04:28:35Z,42.805,6.029,13.2958,4.59956,2469.9,2019-10-05T06:29:00Z
2019-10-05T04:31:39Z,42.805,6.029,13.2958,4.59955,2469.867,2019-10-05T06:32:03Z
2019-10-05T04:34:42Z,42.805,6.029,13.2957,4.59954,2469.876,2019-10-05T06:35:06Z
2019-10-05T04:37:45Z,42.805,6.029,13.2956,4.59954,2469.876,2019-10-05T06:38:10Z
2019-10-05T04:40:48Z,42.805,6.029,13.2957,4.59955,2469.914,2019-10-05T06:41:13Z
2019-10-05T04:43:52Z,42.805,6.029,13.2957,4.59955,2469.89,2019-10-05T06:44:16Z
2019-10-05T04:46:55Z,42.805,6.029,13.2956,4.59957,2469.844,2019-10-05T06:47:19Z
2019-10-05T04:49:58Z,42.805,6.029,13.2957,4.59954,2469.844,2019-10-05T06:50:23Z
2019-10-05T04:53:01Z,42.805,6.029,13.2952,4.59954,2469.853,2019-10-05T06:53:26Z
2019-10-05T04:56:04Z,42.805,6.029,13.2958,4.59954,2469.9,2019-10-05T06:56:29Z
2019-10-05T04:59:08Z,42.805,6.029,13.2958,4.59954,2469.876,2019-10-05T06:59:32Z
2019-10-05T05:02:11Z,42.805,6.029,13.2952,4.59954,2469.867,2019-10-05T07:02:35Z
2019-10-05T05:05:14Z,42.805,6.029,13.2956,4.59954,2469.876,2019-10-05T07:05:39Z
2019-10-05T05:08:17Z,42.805,6.029,13.2958,4.59954,2469.876,2019-10-05T07:08:42Z
2019-10-05T05:11:20Z,42.805,6.029,13.2960,4.59954,2469.867,2019-10-05T07:11:45Z
2019-10-05T05:14:24Z,42.805,6.029,13.2957,4.59956,2469.914,2019-10-05T07:14:48Z
2019-10-05T05:17:27Z,42.805,6.029,13.2957,4.59954,2469.853,2019-10-05T07:17:51Z
2019-10-05T05:20:30Z,42.805,6.029,13.2959,4.59955,2469.876,2019-10-05T07:20:55Z
2019-10-05T05:23:33Z,42.805,6.029,13.2958,4.59956,2469.853,2019-10-05T07:23:58Z
2019-10-05T05:26:36Z,42.805,6.029,13.2960,4.59955,2469.83,2019-10-05T07:27:01Z
2019-10-05T05:29:40Z,42.805,6.029,13.2958,4.59954,2469.853,2019-10-05T07:30:04Z
2019-10-05T05:32:43Z,42.805,6.029,13.2958,4.59956,2469.853,2019-10-05T07:33:07Z
2019-10-05T05:35:46Z,42.805,6.029,13.2958,4.59954,2469.876,2019-10-05T07:36:11Z
2019-10-05T05:38:49Z,42.805,6.029,13.2958,4.59954,2469.853,2019-10-05T07:39:14Z
2019-10-05T05:41:53Z,42.805,6.029,13.2958,4.59956,2469.853,2019-10-05T07:42:17Z
2019-10-05T05:44:56Z,42.805,6.029,13.2959,4.59954,2469.89,2019-10-05T07:45:20Z
2019-10-05T05:47:59Z,42.805,6.029,13.2955,4.59956,2469.867,2019-10-05T07:48:24Z
2019-10-05T05:51:02Z,42.805,6.029,13.2954,4.59954,2469.867,2019-10-05T07:51:27Z
2019-10-05T05:54:05Z,42.805,6.029,13.2958,4.59954,2469.83,2019-10-05T07:54:30Z
2019-10-05T05:57:09Z,42.805,6.029,13.2961,4.59954,2469.89,2019-10-05T07:57:33Z
2019-10-05T06:00:12Z,42.805,6.029,13.2955,4.59954,2469.853,2019-10-05T08:00:36Z
2019-10-05T06:03:15Z,42.805,6.029,13.2959,4.59954,2469.806,2019-10-05T08:03:40Z
2019-10-05T06:06:18Z,42.805,6.029,13.2961,4.59958,2469.853,2019-10-05T08:06:43Z
2019-10-05T06:09:21Z,42.805,6.029,13.2958,4.59954,2469.853,2019-10-05T08:09:46Z
2019-10-05T06:12:25Z,42.805,6.029,13.2958,4.59956,2469.83,2019-10-05T08:12:49Z
2019-10-05T06:15:28Z,42.805,6.029,13.2959,4.59956,2469.853,2019-10-05T08:15:53Z
2019-10-05T06:18:31Z,42.805,6.029,13.2957,4.59954,2469.867,2019-10-05T08:18:56Z
2019-10-05T06:21:34Z,42.805,6.029,13.2957,4.59954,2469.83,2019-10-05T08:21:59Z
2019-10-05T06:24:37Z,42.805,6.029,13.2958,4.59955,2469.867,2019-10-05T08:25:02Z
2019-10-05T06:27:41Z,42.805,6.029,13.2959,4.59956,2469.89,2019-10-05T08:28:05Z
2019-10-05T06:30:44Z,42.805,6.029,13.2957,4.59956,2469.83,2019-10-05T08:31:09Z
2019-10-05T06:33:47Z,42.805,6.029,13.2960,4.59954,2469.853,2019-10-05T08:34:12Z
2019-10-05T06:36:50Z,42.805,6.029,13.2955,4.59956,2469.844,2019-10-05T08:37:15Z
2019-10-05T06:39:54Z,42.805,6.029,13.2958,4.59957,2469.867,2019-10-05T08:40:18Z
2019-10-05T06:42:57Z,42.805,6.029,13.2958,4.59954,2469.867,2019-10-05T08:43:21Z
2019-10-05T06:46:00Z,42.805,6.029,13.2957,4.59954,2469.853,2019-10-05T08:46:25Z
2019-10-05T06:49:03Z,42.805,6.029,13.2956,4.59954,2469.83,2019-10-05T08:49:28Z
2019-10-05T06:52:06Z,42.805,6.029,13.2957,4.59955,2469.853,2019-10-05T08:52:31Z
2019-10-05T06:55:10Z,42.805,6.029,13.2958,4.59955,2469.876,2019-10-05T08:55:34Z
2019-10-05T06:58:13Z,42.805,6.029,13.2959,4.59955,2469.867,2019-10-05T08:58:38Z
2019-10-05T07:01:16Z,42.805,6.029,13.2954,4.59956,2469.867,2019-10-05T09:01:41Z
2019-10-05T07:04:19Z,42.805,6.029,13.2957,4.59955,2469.876,2019-10-05T09:04:44Z
2019-10-05T07:07:23Z,42.805,6.029,13.2957,4.59956,2469.89,2019-10-05T09:07:47Z
2019-10-05T07:10:26Z,42.805,6.029,13.2957,4.59956,2469.876,2019-10-05T09:10:50Z
2019-10-05T07:13:29Z,42.805,6.029,13.2958,4.59954,2469.89,2019-10-05T09:13:53Z
2019-10-05T07:16:32Z,42.805,6.029,13.2954,4.59954,2469.89,2019-10-05T09:16:57Z
2019-10-05T07:19:35Z,42.805,6.029,13.2957,4.59955,2469.867,2019-10-05T09:20:00Z
2019-10-05T07:22:39Z,42.805,6.029,13.2958,4.59955,2469.89,2019-10-05T09:23:03Z
2019-10-05T07:25:42Z,42.805,6.029,13.2960,4.59954,2469.89,2019-10-05T09:26:06Z
2019-10-05T07:28:45Z,42.805,6.029,13.2960,4.59955,2469.867,2019-10-05T09:29:10Z
2019-10-05T07:31:48Z,42.805,6.029,13.2960,4.59956,2469.876,2019-10-05T09:32:13Z
2019-10-05T07:34:51Z,42.805,6.029,13.2958,4.59955,2469.904,2019-10-05T09:35:16Z
2019-10-05T07:37:54Z,42.805,6.029,13.2958,4.59955,2469.853,2019-10-05T09:38:19Z
2019-10-05T07:40:58Z,42.805,6.029,13.2960,4.59954,2469.876,2019-10-05T09:41:22Z
2019-10-05T07:44:01Z,42.805,6.029,13.2960,4.59955,2469.89,2019-10-05T09:44:26Z
2019-10-05T07:47:04Z,42.805,6.029,13.2958,4.59954,2469.876,2019-10-05T09:47:29Z
2019-10-05T07:50:07Z,42.805,6.029,13.2957,4.59960,2469.876,2019-10-05T09:50:32Z
2019-10-05T07:53:11Z,42.805,6.029,13.2957,4.59956,2469.876,2019-10-05T09:53:35Z
2019-10-05T07:56:14Z,42.805,6.029,13.2959,4.59955,2469.863,2019-10-05T09:56:38Z
2019-10-05T07:59:17Z,42.805,6.029,13.2956,4.59958,2469.89,2019-10-05T09:59:42Z
2019-10-05T08:02:20Z,42.805,6.029,13.2957,4.59955,2469.9,2019-10-05T10:02:45Z
2019-10-05T08:05:23Z,42.805,6.029,13.2960,4.59955,2469.876,2019-10-05T10:05:48Z
2019-10-05T08:08:27Z,42.805,6.029,13.2959,4.59954,2469.876,2019-10-05T10:08:51Z
2019-10-05T08:11:30Z,42.805,6.029,13.2957,4.59954,2469.937,2019-10-05T10:11:55Z
2019-10-05T08:14:33Z,42.805,6.029,13.2958,4.59954,2469.876,2019-10-05T10:14:58Z
2019-10-05T08:17:37Z,42.805,6.029,13.2957,4.59954,2469.9,2019-10-05T10:18:01Z
2019-10-05T08:20:40Z,42.805,6.029,13.2964,4.59955,2469.923,2019-10-05T10:21:04Z
2019-10-05T08:23:43Z,42.805,6.029,13.2956,4.59958,2469.876,2019-10-05T10:24:08Z
2019-10-05T08:26:46Z,42.805,6.029,13.2960,4.59955,2469.876,2019-10-05T10:27:11Z
2019-10-05T08:29:49Z,42.805,6.029,13.2958,4.59955,2469.914,2019-10-05T10:30:14Z
2019-10-05T08:32:53Z,42.805,6.029,13.2956,4.59954,2469.876,2019-10-05T10:33:17Z
2019-10-05T08:35:56Z,42.805,6.029,13.2956,4.59954,2469.96,2019-10-05T10:36:20Z
2019-10-05T08:38:59Z,42.805,6.029,13.2957,4.59961,2469.923,2019-10-05T10:39:24Z
2019-10-05T08:42:02Z,42.805,6.029,13.2957,4.59954,2469.9,2019-10-05T10:42:27Z
2019-10-05T08:45:06Z,42.805,6.029,13.2960,4.59954,2469.937,2019-10-05T10:45:30Z
2019-10-05T08:48:09Z,42.805,6.029,13.2956,4.59955,2469.9,2019-10-05T10:48:33Z
2019-10-05T08:51:12Z,42.805,6.029,13.2956,4.59955,2469.9,2019-10-05T10:51:37Z
2019-10-05T08:54:15Z,42.805,6.029,13.2958,4.59955,2469.937,2019-10-05T10:54:40Z
2019-10-05T08:57:18Z,42.805,6.029,13.2956,4.59960,2469.937,2019-10-05T10:57:43Z
2019-10-05T09:00:22Z,42.805,6.029,13.2955,4.59955,2469.923,2019-10-05T11:00:46Z
2019-10-05T09:03:25Z,42.805,6.029,13.2957,4.59954,2469.9,2019-10-05T11:03:49Z
2019-10-05T09:06:28Z,42.805,6.029,13.2961,4.59954,2469.947,2019-10-05T11:06:53Z
2019-10-05T09:09:31Z,42.805,6.029,13.2959,4.59957,2469.937,2019-10-05T11:09:56Z
2019-10-05T09:12:34Z,42.805,6.029,13.2960,4.59955,2469.937,2019-10-05T11:12:59Z
2019-10-05T09:15:38Z,42.805,6.029,13.2958,4.59956,2469.947,2019-10-05T11:16:02Z
2019-10-05T09:18:41Z,42.805,6.029,13.2960,4.59958,2469.923,2019-10-05T11:19:06Z
2019-10-05T09:21:44Z,42.805,6.029,13.2957,4.59955,2469.923,2019-10-05T11:22:09Z
2019-10-05T09:24:47Z,42.805,6.029,13.2960,4.59957,2469.937,2019-10-05T11:25:12Z
2019-10-05T09:27:51Z,42.805,6.029,13.2959,4.59955,2469.947,2019-10-05T11:28:15Z
2019-10-05T09:30:54Z,42.805,6.029,13.2957,4.59955,2469.947,2019-10-05T11:31:18Z
2019-10-05T09:33:57Z,42.805,6.029,13.2957,4.59955,2469.947,2019-10-05T11:34:22Z
2019-10-05T09:37:00Z,42.805,6.029,13.2956,4.59955,2469.947,2019-10-05T11:37:25Z
2019-10-05T09:40:03Z,42.805,6.029,13.2961,4.59958,2469.96,2019-10-05T11:40:28Z
2019-10-05T09:43:07Z,42.805,6.029,13.2957,4.59955,2469.96,2019-10-05T11:43:31Z
2019-10-05T09:46:10Z,42.805,6.029,13.2957,4.59955,2469.96,2019-10-05T11:46:34Z
2019-10-05T09:49:13Z,42.805,6.029,13.2956,4.59955,2469.97,2019-10-05T11:49:38Z
2019-10-05T09:52:16Z,42.805,6.029,13.2955,4.59955,2469.9,2019-10-05T11:52:41Z
2019-10-05T09:55:19Z,42.805,6.029,13.2961,4.59958,2469.947,2019-10-05T11:55:44Z
2019-10-05T09:58:23Z,42.805,6.029,13.2959,4.59957,2469.937,2019-10-05T11:58:47Z
2019-10-05T10:01:26Z,42.805,6.029,13.2959,4.59955,2469.937,2019-10-05T12:01:50Z
2019-10-05T10:04:29Z,42.805,6.029,13.2957,4.59956,2469.923,2019-10-05T12:04:54Z
2019-10-05T10:07:32Z,42.805,6.029,13.2958,4.59955,2469.947,2019-10-05T12:07:57Z
2019-10-05T10:10:36Z,42.805,6.029,13.2957,4.59956,2469.96,2019-10-05T12:11:00Z
2019-10-05T10:13:39Z,42.805,6.029,13.2959,4.59956,2469.993,2019-10-05T12:14:03Z
2019-10-05T10:16:42Z,42.805,6.029,13.2957,4.59956,2470.007,2019-10-05T12:17:07Z
2019-10-05T10:19:45Z,42.805,6.029,13.2961,4.59956,2469.96,2019-10-05T12:20:10Z
2019-10-05T10:22:48Z,42.805,6.029,13.2958,4.59958,2469.993,2019-10-05T12:23:13Z
2019-10-05T10:25:52Z,42.805,6.029,13.2958,4.59956,2469.984,2019-10-05T12:26:16Z
2019-10-05T10:28:55Z,42.805,6.029,13.2960,4.59955,2469.947,2019-10-05T12:29:19Z
2019-10-05T10:31:58Z,42.805,6.029,13.2957,4.59956,2469.947,2019-10-05T12:32:23Z
2019-10-05T10:35:01Z,42.805,6.029,13.2954,4.59956,2469.97,2019-10-05T12:35:26Z
2019-10-05T10:38:05Z,42.805,6.029,13.2955,4.59956,2469.947,2019-10-05T12:38:29Z
2019-10-05T10:41:08Z,42.805,6.029,13.2959,4.59957,2469.956,2019-10-05T12:41:32Z
2019-10-05T10:44:11Z,42.805,6.029,13.2959,4.59958,2469.97,2019-10-05T12:44:36Z
2019-10-05T10:47:14Z,42.805,6.029,13.2958,4.59961,2470.017,2019-10-05T12:47:39Z
2019-10-05T10:50:17Z,42.805,6.029,13.2959,4.59956,2470.007,2019-10-05T12:50:42Z
2019-10-05T10:53:21Z,42.805,6.029,13.2963,4.59956,2469.97,2019-10-05T12:53:45Z
2019-10-05T10:56:24Z,42.805,6.029,13.2957,4.59955,2469.993,2019-10-05T12:56:49Z
2019-10-05T10:59:27Z,42.805,6.029,13.2958,4.59955,2469.984,2019-10-05T12:59:52Z
2019-10-05T11:02:31Z,42.805,6.029,13.2956,4.59956,2469.993,2019-10-05T13:02:55Z
2019-10-05T11:05:34Z,42.805,6.029,13.2961,4.59955,2470.007,2019-10-05T13:05:58Z
2019-10-05T11:08:37Z,42.805,6.029,13.2958,4.59954,2469.97,2019-10-05T13:09:02Z
2019-10-05T11:11:40Z,42.805,6.029,13.2964,4.59956,2469.97,2019-10-05T13:12:05Z
2019-10-05T11:14:43Z,42.805,6.029,13.2957,4.59963,2469.984,2019-10-05T13:15:08Z
2019-10-05T11:17:47Z,42.805,6.029,13.2957,4.59958,2470.007,2019-10-05T13:18:11Z
2019-10-05T11:20:50Z,42.805,6.029,13.2957,4.59956,2470.007,2019-10-05T13:21:14Z
2019-10-05T11:23:53Z,42.805,6.029,13.2957,4.59956,2469.984,2019-10-05T13:24:18Z
2019-10-05T11:26:56Z,42.805,6.029,13.2957,4.59955,2469.97,2019-10-05T13:27:21Z
2019-10-05T11:30:00Z,42.805,6.029,13.2958,4.59956,2470.017,2019-10-05T13:30:24Z
2019-10-05T11:33:03Z,42.805,6.029,13.2962,4.59957,2469.993,2019-10-05T13:33:27Z
2019-10-05T11:36:06Z,42.805,6.029,13.2961,4.59955,2469.993,2019-10-05T13:36:31Z
2019-10-05T11:39:09Z,42.805,6.029,13.2958,4.59956,2469.97,2019-10-05T13:39:34Z
2019-10-05T11:42:12Z,42.805,6.029,13.2962,4.59956,2469.993,2019-10-05T13:42:37Z
2019-10-05T11:45:16Z,42.805,6.029,13.2958,4.59955,2470.007,2019-10-05T13:45:40Z
2019-10-05T11:48:19Z,42.805,6.029,13.2959,4.59956,2469.97,2019-10-05T13:48:43Z
2019-10-05T11:51:22Z,42.805,6.029,13.2958,4.59957,2470.017,2019-10-05T13:51:47Z
2019-10-05T11:54:25Z,42.805,6.029,13.2960,4.59958,2469.97,2019-10-05T13:54:50Z
2019-10-05T11:57:29Z,42.805,6.029,13.2958,4.59958,2469.97,2019-10-05T13:57:53Z
2019-10-05T12:00:32Z,42.805,6.029,13.2958,4.59958,2469.993,2019-10-05T14:00:56Z
2019-10-05T12:03:35Z,42.805,6.029,13.2957,4.59955,2470.017,2019-10-05T14:04:00Z
2019-10-05T12:06:38Z,42.805,6.029,13.2959,4.59956,2469.993,2019-10-05T14:07:03Z
2019-10-05T12:09:41Z,42.805,6.029,13.2960,4.59957,2469.984,2019-10-05T14:10:06Z
2019-10-05T12:12:45Z,42.805,6.029,13.2956,4.59957,2469.993,2019-10-05T14:13:09Z
2019-10-05T12:15:48Z,42.805,6.029,13.2961,4.59958,2469.993,2019-10-05T14:16:12Z
2019-10-05T12:18:51Z,42.805,6.029,13.2960,4.59958,2469.947,2019-10-05T14:19:16Z
2019-10-05T12:21:54Z,42.805,6.029,13.2960,4.59955,2470.007,2019-10-05T14:22:19Z
2019-10-05T12:24:57Z,42.805,6.029,13.2958,4.59956,2469.97,2019-10-05T14:25:22Z
2019-10-05T12:28:01Z,42.805,6.029,13.2955,4.59955,2469.984,2019-10-05T14:28:25Z
2019-10-05T12:31:04Z,42.805,6.029,13.2959,4.59956,2469.993,2019-10-05T14:31:29Z
2019-10-05T12:34:07Z,42.805,6.029,13.2954,4.59957,2469.984,2019-10-05T14:34:32Z
2019-10-05T12:37:10Z,42.805,6.029,13.2956,4.59958,2469.993,2019-10-05T14:37:35Z
2019-10-05T12:40:14Z,42.805,6.029,13.2958,4.59957,2469.993,2019-10-05T14:40:38Z
2019-10-05T12:43:17Z,42.805,6.029,13.2957,4.59957,2469.993,2019-10-05T14:43:41Z
2019-10-05T12:46:20Z,42.805,6.029,13.2958,4.59955,2469.993,2019-10-05T14:46:45Z
2019-10-05T12:49:23Z,42.805,6.029,13.2959,4.59957,2469.984,2019-10-05T14:49:48Z
2019-10-05T12:52:26Z,42.805,6.029,13.2962,4.59955,2469.984,2019-10-05T14:52:51Z
2019-10-05T12:55:30Z,42.805,6.029,13.2957,4.59956,2469.993,2019-10-05T14:55:54Z
2019-10-05T12:58:33Z,42.805,6.029,13.2957,4.59955,2469.97,2019-10-05T14:58:58Z
2019-10-05T13:01:36Z,42.805,6.029,13.2958,4.59956,2469.984,2019-10-05T15:02:01Z
2019-10-05T13:04:40Z,42.805,6.029,13.2961,4.59955,2470.007,2019-10-05T15:05:04Z
2019-10-05T13:07:43Z,42.805,6.029,13.2964,4.59956,2470.017,2019-10-05T15:08:07Z
2019-10-05T13:10:46Z,42.805,6.029,13.2963,4.59955,2470.017,2019-10-05T15:11:11Z
2019-10-05T13:13:49Z,42.805,6.029,13.2962,4.59956,2470.007,2019-10-05T15:14:14Z
2019-10-05T13:16:53Z,42.805,6.029,13.2961,4.59954,2469.993,2019-10-05T15:17:17Z
2019-10-05T13:19:56Z,42.805,6.029,13.2959,4.59957,2470.007,2019-10-05T15:20:20Z
2019-10-05T13:22:59Z,42.805,6.029,13.2958,4.59958,2469.993,2019-10-05T15:23:24Z
2019-10-05T13:26:02Z,42.805,6.029,13.2958,4.59956,2470.007,2019-10-05T15:26:27Z
2019-10-05T13:29:06Z,42.805,6.029,13.2956,4.59958,2469.96,2019-10-05T15:29:30Z
2019-10-05T13:32:09Z,42.805,6.029,13.2960,4.59958,2470.007,2019-10-05T15:32:33Z
2019-10-05T13:35:12Z,42.805,6.029,13.2958,4.59956,2469.993,2019-10-05T15:35:37Z
2019-10-05T13:38:15Z,42.805,6.029,13.2959,4.59956,2469.984,2019-10-05T15:38:40Z
2019-10-05T13:41:19Z,42.805,6.029,13.2957,4.59958,2469.993,2019-10-05T15:41:43Z
2019-10-05T13:44:22Z,42.805,6.029,13.2958,4.59956,2469.97,2019-10-05T15:44:46Z
2019-10-05T13:47:25Z,42.805,6.029,13.2958,4.59956,2470.007,2019-10-05T15:47:50Z
2019-10-05T13:50:28Z,42.805,6.029,13.2959,4.59955,2469.947,2019-10-05T15:50:53Z
2019-10-05T13:53:32Z,42.805,6.029,13.2959,4.59955,2469.97,2019-10-05T15:53:56Z
2019-10-05T13:56:35Z,42.805,6.029,13.2960,4.59955,2469.993,2019-10-05T15:57:00Z
2019-10-05T13:59:38Z,42.805,6.029,13.2956,4.59955,2469.96,2019-10-05T16:00:03Z
2019-10-05T14:02:41Z,42.805,6.029,13.2958,4.59956,2469.984,2019-10-05T16:03:06Z
2019-10-05T14:05:45Z,42.805,6.029,13.2958,4.59956,2469.984,2019-10-05T16:06:09Z
2019-10-05T14:08:48Z,42.805,6.029,13.2961,4.59958,2469.97,2019-10-05T16:09:12Z
2019-10-05T14:11:51Z,42.805,6.029,13.2957,4.59958,2470.007,2019-10-05T16:12:16Z
2019-10-05T14:14:54Z,42.805,6.029,13.2959,4.59959,2469.984,2019-10-05T16:15:19Z
2019-10-05T14:17:58Z,42.805,6.029,13.2958,4.59957,2470.007,2019-10-05T16:18:22Z
2019-10-05T14:21:01Z,42.805,6.029,13.2958,4.59958,2470.017,2019-10-05T16:21:25Z
2019-10-05T14:24:04Z,42.805,6.029,13.2958,4.59956,2469.97,2019-10-05T16:24:29Z
2019-10-05T14:27:07Z,42.805,6.029,13.2958,4.59958,2470.007,2019-10-05T16:27:32Z
2019-10-05T14:30:11Z,42.805,6.029,13.2958,4.59956,2469.984,2019-10-05T16:30:35Z
2019-10-05T14:33:14Z,42.805,6.029,13.2957,4.59956,2469.993,2019-10-05T16:33:38Z
2019-10-05T14:36:17Z,42.805,6.029,13.2961,4.59955,2470.007,2019-10-05T16:36:42Z
2019-10-05T14:39:20Z,42.805,6.029,13.2959,4.59956,2470.017,2019-10-05T16:39:45Z
2019-10-05T14:42:23Z,42.805,6.029,13.2958,4.59956,2469.97,2019-10-05T16:42:48Z
2019-10-05T14:45:27Z,42.805,6.029,13.2959,4.59956,2469.993,2019-10-05T16:45:51Z
2019-10-05T14:48:30Z,42.805,6.029,13.2958,4.59955,2469.97,2019-10-05T16:48:54Z
2019-10-05T14:51:33Z,42.805,6.029,13.2958,4.59956,2469.97,2019-10-05T16:51:58Z
2019-10-05T14:54:36Z,42.805,6.029,13.2959,4.59955,2469.993,2019-10-05T16:55:01Z
2019-10-05T14:57:39Z,42.805,6.029,13.2958,4.59957,2469.984,2019-10-05T16:58:04Z
2019-10-05T15:00:43Z,42.805,6.029,13.2958,4.59955,2470.007,2019-10-05T17:01:07Z
2019-10-05T15:03:46Z,42.805,6.029,13.2956,4.59960,2469.993,2019-10-05T17:04:10Z